Theta_e
351 350 350 349 349 350 349 349 350 349 349 351 352 353 353 354 354 352 351 350 348 346 344 341 341 337 338 338 338 338 338 337 337 336 334 336 332 331 331 329 329 329
351 351 351 351 350 350 350 350 350 350 349 350 352 353 354 354 353 352 351 349 349 346 343 341 340 337 336 337 336 336 337 337 336 339 335 335 334 332 332 332 332 329
351 350 350 350 350 350 350 350 350 350 350 350 352 353 353 353 352 352 351 349 348 346 342 341 339 338 336 337 336 336 337 336 336 337 337 335 334 334 333 333 331 330
351 351 350 350 351 350 351 350 350 350 350 350 350 352 353 353 352 351 350 352 347 346 342 340 340 339 337 336 337 335 335 337 337 337 337 336 336 335 334 333 334 332
351 351 351 351 351 351 352 351 350 350 350 350 351 351 352 351 350 350 349 348 347 345 342 340 339 339 338 337 337 335 335 335 336 336 336 335 335 336 335 335 334 333
351 352 352 351 351 351 351 351 351 351 350 350 350 352 351 351 350 349 348 347 346 345 343 340 339 339 338 337 337 336 336 335 335 336 336 335 335 336 337 335 333 333
350 351 351 352 351 351 351 351 352 352 351 351 351 351 351 351 350 349 348 347 345 344 343 340 339 339 338 337 336 336 335 336 335 335 336 335 335 335 336 334 334 333
350 351 352 352 351 351 351 351 352 352 352 352 351 351 351 350 350 349 348 347 345 343 343 341 339 339 339 338 336 336 334 336 335 334 335 335 335 334 335 335 334 332
350 351 351 351 351 351 351 352 352 352 353 352 351 351 351 351 350 348 347 346 345 343 342 341 340 339 339 339 337 336 335 334 335 334 334 334 334 335 335 335 334 333
350 351 351 351 351 352 352 352 352 353 354 352 352 352 351 351 350 349 347 345 344 343 341 341 340 339 338 339 338 337 336 335 334 334 334 334 335 335 335 335 335 333
350 350 350 351 351 352 352 353 353 353 353 353 352 352 351 351 350 349 347 345 344 343 341 340 340 339 338 338 339 339 337 336 335 334 334 334 335 335 339 335 335 334
351 350 350 351 352 352 353 353 354 353 353 353 353 352 352 351 350 348 347 345 345 344 342 340 340 340 339 339 339 339 338 337 336 335 334 334 335 335 336 336 336 335
351 351 351 351 352 352 353 353 353 354 353 353 354 353 352 351 350 348 348 347 345 344 343 342 340 340 339 339 339 338 338 337 336 335 335 335 335 335 335 336 336 335
352 352 353 353 353 353 353 353 354 354 354 354 354 353 353 352 351 349 348 347 346 345 344 343 341 340 339 339 339 339 338 337 337 336 336 335 335 335 335 335 336 336
352 353 354 354 354 353 353 353 353 353 354 354 354 353 354 353 352 351 348 346 346 345 344 343 342 341 340 339 339 338 338 337 337 337 336 335 335 335 335 335 335 336
352 353 353 354 354 353 353 353 353 353 353 353 353 354 353 353 352 351 350 347 345 344 344 343 343 342 336 328 331 339 338 338 338 337 336 336 336 335 335 335 335 335
352 353 353 353 353 353 353 353 353 353 353 353 353 353 353 353 353 351 349 348 346 345 343 343 343 342 330 326 328 331 338 338 338 337 337 337 336 335 335 335 335 335
353 353 353 353 353 353 353 353 353 353 352 352 352 352 352 353 352 351 350 349 348 346 344 343 343 333 326 325 327 327 332 340 338 337 338 337 336 336 335 335 335 334
353 353 353 353 353 353 353 353 353 352 352 351 351 352 352 352 351 351 350 349 348 346 345 344 343 331 325 324 325 325 328 335 339 339 338 337 337 336 335 334 333 333
353 353 352 353 353 353 353 353 352 352 352 352 352 352 351 351 351 351 351 350 349 347 346 345 344 329 323 322 322 323 326 334 339 338 338 337 337 336 335 333 332 332
353 353 353 353 353 353 353 352 352 352 351 352 351 351 350 350 350 350 351 350 350 349 347 346 346 326 320 320 320 320 324 329 340 338 337 336 337 336 335 334 333 333
354 353 353 353 353 353 352 352 352 351 351 351 351 351 351 351 351 351 350 350 350 349 348 346 346 322 319 319 318 318 324 336 338 337 336 336 335 335 335 334 334 334
354 354 353 353 353 352 352 352 351 351 352 352 350 350 349 349 349 350 351 350 350 349 347 347 346 325 318 316 316 317 324 338 337 336 335 335 335 334 334 334 334 334
354 354 353 353 353 352 352 352 353 353 352 352 351 350 349 349 350 350 350 350 349 349 348 347 346 326 314 314 314 316 325 337 337 336 336 335 334 334 334 334 336 342
354 354 354 353 353 353 353 352 352 352 353 353 352 352 351 351 350 350 349 350 350 349 339 344 347 328 313 313 313 315 329 336 336 336 334 334 333 332 332 333 333 341
353 354 354 354 353 353 354 353 354 353 353 353 352 352 351 351 350 350 349 349 349 349 348 346 345 331 320 312 312 314 324 336 337 335 333 332 332 331 330 330 331 335
Wind_Speed
14 11 12 11 11 10 10 10 9 10 10 9 9 10 10 10 8 9 10 8 8 8 8 7 7 7 6 6 6 6 6 6 5 5 6 6 5 5 6 4 3 5
15 14 11 10 9 9 8 9 10 10 11 10 10 9 9 8 9 10 9 9 9 9 8 7 7 7 7 7 6 7 6 6 6 4 6 6 5 5 5 5 4 3
14 13 13 13 12 12 12 10 10 10 10 11 10 9 8 8 9 9 9 10 9 9 8 7 7 8 8 7 7 7 7 7 7 5 6 7 5 6 5 5 4 5
15 14 14 14 13 13 11 10 9 9 8 8 10 10 9 8 9 10 10 10 10 9 8 7 9 8 8 7 7 7 7 7 7 6 6 4 5 6 6 5 4 4
16 14 13 13 12 12 11 11 11 10 11 11 9 9 9 9 9 9 10 10 9 9 8 9 8 8 8 7 7 7 7 7 6 6 6 6 6 6 6 6 5 6
14 14 13 13 13 12 12 13 12 11 11 10 11 9 9 10 10 11 11 11 10 10 9 9 9 8 8 8 8 8 7 7 6 7 7 7 7 6 5 6 6 6
15 14 15 13 13 13 13 13 12 12 11 11 8 10 10 11 11 11 11 11 11 11 10 9 9 9 8 8 8 8 7 7 6 8 8 7 7 7 5 5 5 5
16 14 14 13 14 14 14 13 13 12 11 9 11 11 10 11 12 11 11 11 11 11 10 10 10 10 9 8 9 9 8 6 7 8 8 7 6 7 6 5 5 5
15 15 14 15 16 14 15 14 13 12 11 12 12 10 10 11 11 11 11 11 11 11 10 10 11 10 9 9 10 10 10 9 7 8 8 8 9 9 8 6 6 6
16 15 16 16 16 15 16 15 14 12 11 12 11 10 11 10 10 11 11 11 12 11 11 11 11 10 10 10 11 11 10 10 8 7 8 9 10 9 8 8 9 7
16 15 16 17 17 15 17 16 14 13 11 12 11 11 11 10 10 10 11 12 12 13 12 11 11 11 11 11 11 10 10 9 9 8 9 9 10 9 9 9 9 9
16 16 17 17 17 16 16 16 14 13 12 11 12 13 11 11 11 10 11 13 12 12 12 12 11 12 12 12 12 10 9 8 8 9 10 10 10 9 9 8 9 9
17 17 16 16 16 16 14 14 14 14 13 13 12 13 12 12 12 12 11 12 13 12 12 12 12 11 12 12 11 10 9 9 9 10 10 10 8 7 7 8 9 8
17 15 15 15 15 14 14 14 14 14 14 13 12 13 13 13 13 13 12 11 12 12 12 11 11 12 12 11 11 10 9 9 10 11 11 9 6 6 8 8 9 8
15 14 14 14 15 14 14 14 14 13 13 13 13 13 12 13 12 12 12 12 12 12 12 11 12 12 11 11 11 11 9 10 12 11 10 7 6 7 8 8 7 8
15 14 14 14 14 15 15 14 13 13 13 14 14 13 13 12 12 12 12 13 13 13 12 11 12 11 13 18 16 11 10 10 10 9 7 7 9 9 8 8 9 8
15 15 14 15 16 14 13 14 15 13 13 14 13 13 14 13 12 13 13 13 14 14 14 12 12 11 17 17 19 17 12 10 9 7 8 10 11 9 10 10 8 8
16 15 16 16 15 16 15 14 13 13 14 14 14 14 14 12 13 14 14 13 13 13 14 14 13 13 17 19 19 18 15 11 8 8 10 10 9 10 9 7 7 7
16 16 17 16 16 16 14 13 14 14 15 14 16 15 12 13 15 14 14 14 14 14 15 14 12 14 18 20 19 18 18 13 9 11 11 10 9 8 7 6 6 7
16 17 18 18 16 15 14 15 15 17 16 14 12 12 14 15 14 15 14 14 14 15 15 12 12 14 19 19 19 19 19 17 12 10 7 6 7 8 7 7 8 8
16 17 18 16 15 15 15 16 17 16 15 14 13 15 15 15 15 15 15 15 15 14 12 11 11 15 19 20 20 20 22 19 9 3 4 5 7 7 8 8 8 8
17 17 16 15 15 15 16 17 17 16 16 14 13 13 12 11 11 12 14 14 14 13 12 12 11 17 20 21 20 21 23 14 13 10 6 7 6 6 7 7 8 8
16 16 15 15 15 16 17 17 17 16 15 13 14 14 13 13 14 14 13 14 14 13 13 12 10 16 20 20 20 21 18 9 8 9 7 7 6 4 5 6 7 7
16 16 16 16 15 17 18 16 15 13 14 13 14 14 14 15 13 12 12 13 13 13 14 13 11 13 20 19 20 22 17 12 13 10 10 10 9 7 7 7 8 14
15 16 17 17 17 18 17 16 16 15 13 11 12 13 14 12 11 12 12 11 12 13 15 15 12 11 17 18 21 23 20 14 10 11 12 12 9 9 7 6 7 11
15 17 17 18 19 18 16 16 14 12 13 14 13 12 12 12 11 12 13 12 11 12 12 14 11 8 13 19 21 23 23 16 10 10 11 13 11 10 8 6 7 7
Wind_Direction
198 195 197 196 201 202 200 198 198 196 198 196 195 200 200 202 188 194 197 194 197 198 194 187 185 185 184 182 187 183 182 192 188 178 182 179 187 172 182 182 172 172
197 195 194 194 198 201 204 202 201 197 198 198 200 198 200 190 194 192 194 195 197 201 192 186 187 184 185 186 186 184 187 188 196 177 177 184 192 183 189 184 188 176
197 194 191 192 195 198 200 201 201 203 200 201 200 198 196 192 191 195 195 195 197 199 189 188 186 189 189 187 183 190 190 190 197 185 178 189 184 185 197 181 181 172
200 196 193 194 195 196 198 199 202 204 206 201 201 197 193 192 191 193 196 197 199 197 190 184 192 192 191 187 184 195 196 195 192 175 184 189 190 187 191 184 189 183
197 197 196 196 196 195 194 200 203 202 204 206 199 194 191 190 192 194 195 199 200 199 186 190 194 195 189 189 189 194 197 197 187 175 181 192 198 189 197 182 188 191
199 198 196 196 195 192 195 200 204 202 205 204 202 195 195 191 192 195 194 197 200 199 192 190 193 197 191 194 191 199 194 193 191 176 184 196 200 203 194 189 187 190
195 195 197 197 196 197 199 203 204 203 204 205 194 201 192 193 196 197 196 197 198 200 195 190 195 197 195 195 197 201 200 197 185 185 188 197 197 208 204 188 192 196
196 196 196 196 198 198 202 202 204 204 201 197 203 204 193 196 196 196 197 196 200 202 196 194 197 200 196 194 199 202 204 198 195 187 191 194 196 207 201 195 187 202
195 196 194 196 198 200 204 204 204 203 196 199 204 202 199 200 197 196 195 197 202 202 196 198 199 199 199 198 202 201 201 202 197 188 187 191 199 205 197 190 195 202
198 195 195 197 200 202 204 205 203 201 196 200 201 198 199 203 199 197 194 198 203 203 199 199 198 199 200 203 206 203 203 200 191 189 192 197 199 199 194 192 200 201
199 197 198 199 201 201 204 203 203 201 198 200 196 199 200 196 200 196 198 200 204 204 200 200 200 198 201 206 209 208 204 197 190 192 199 201 200 198 193 193 198 204
199 199 200 200 200 203 203 202 201 200 200 201 197 200 198 198 197 197 200 204 208 206 202 202 200 200 203 206 208 206 202 197 191 196 204 205 204 197 194 192 197 202
200 201 199 200 202 203 202 201 202 200 199 201 198 200 199 200 199 200 204 205 208 206 206 203 202 203 206 207 208 204 197 194 195 201 207 211 208 196 198 198 199 197
201 199 198 201 202 202 203 202 201 200 200 199 197 201 203 202 200 201 203 204 206 208 209 204 204 207 207 206 207 201 190 195 202 204 208 210 199 198 201 203 202 201
196 196 199 200 201 202 203 203 202 201 199 198 199 202 203 204 202 200 200 203 207 208 209 205 207 210 206 202 203 198 190 198 205 207 204 196 199 207 206 203 203 204
193 194 197 199 201 203 203 201 201 200 200 200 200 201 202 201 201 201 202 203 205 209 209 208 212 212 207 200 199 193 191 202 204 205 192 192 203 209 209 204 205 201
191 195 195 199 203 202 201 200 200 199 202 202 201 200 201 200 199 201 203 205 207 208 209 212 214 212 202 197 200 190 188 202 198 186 190 202 207 203 210 208 206 203
193 192 196 201 199 202 200 198 198 200 202 203 201 202 202 198 201 203 202 204 208 211 213 214 216 206 194 197 195 187 189 198 184 183 201 207 204 207 212 207 203 202
191 191 198 200 201 200 196 195 198 201 203 202 204 203 197 201 205 202 205 205 207 211 216 215 215 196 194 194 190 182 187 190 183 200 199 203 200 205 209 200 193 191
190 194 198 201 198 195 193 196 199 204 204 202 201 197 202 206 204 205 207 206 207 212 215 213 212 195 193 189 186 175 177 189 205 194 187 189 198 202 198 194 190 189
193 196 200 200 195 193 194 200 202 204 202 200 198 200 203 205 202 205 209 209 210 211 212 210 215 191 188 189 183 169 177 191 209 174 160 189 206 199 197 193 189 189
195 198 200 197 193 194 198 203 203 202 201 199 200 204 206 205 207 210 211 211 212 209 209 213 209 186 189 189 178 170 178 183 199 208 189 213 214 207 201 191 189 190
196 197 197 195 195 197 202 204 203 203 202 196 202 204 202 203 207 207 208 209 210 207 207 212 209 193 189 187 173 165 171 170 190 207 221 239 243 237 211 198 190 193
194 193 194 196 196 202 204 205 204 203 203 196 201 201 205 207 206 207 208 210 206 206 204 208 211 193 190 183 161 163 155 169 199 186 206 232 244 245 230 206 200 196
192 192 195 196 199 204 202 201 201 202 200 196 204 205 210 207 205 208 210 207 206 205 202 203 209 191 190 170 161 163 161 180 181 190 197 218 216 222 224 210 208 208
194 196 198 198 203 203 199 200 197 195 195 198 202 203 206 205 204 206 207 206 201 203 201 203 197 177 180 169 163 167 164 168 185 180 204 214 207 204 208 211 205 206